Location: Most
(50.5133°N, 13.6207°E)
Time: 09:55:37
(UTC+01:00)

Oscar 11 - Pass Details

Date: 07 December 2021
Orbit: 611 x 625 km, 97.6° (Epoch: 26 January)

Event Time Altitude Azimuth Distance (km) Brightness Sun altitude
Rises 17:44:45 0° 207° (SSW) 2,898 11.2 -15.4°
Reaches altitude 10° 17:47:33 10° 227° (SW) 1,998 10.7 -15.8°
Maximum altitude 17:50:32 18° 270° (W) 1,547 10.1 -16.3°
Drops below altitude 10° 17:53:32 10° 314° (NW) 2,010 10.1 -16.8°
Sets 17:56:23 0° 334° (NNW) 2,923 10.7 -17.2°
